SL-16 DEB, 22574

Orbit data source: Space-Track

SL-16 DEB, 22574 is space debris in LEO originally from a launch on Fri, 25 Dec 1992 UTC launched from the Tyuratam Missile And Space Complex (TTMTR). Debris objects in space refer to the collection of defunct objects orbiting the Earth. Examples of debris include non-operational satellites, rocket bodies, and fragments generated from explosions, collisions, or faulty payload assembly.

Loading next visibility...
Identifier
22574, 1992-093HW
Orbit
LEO
Country
Flag of CISCIS
Related business
Manufacturer
Unknown
Mission
Spacecraft
Bus & Motor
Unknown
Mass
Unknown
Launch date (UTC)
1992-12-25 (33 years ago)
Launch vehicle
Unknown
Launch site
Tyuratam Missile And Space Complex (TTMTR)
Object type
Payload
Rocket body
Debris
Shape & HBR
Unknown shape, 0.1 m
Radar Cross Section
Small (<0.1 m²)

Expand to show TLE details & history
Last TLE update: 15 hours ago

TLE from 15 hours ago
0 SL-16 DEB
1 22574U 92093HW  25352.12338721  .00002102  00000-0  10333-2 0  9994
2 22574  71.0844 235.2615 0123210  50.8429  98.5029 14.14882378675554
Epoch: 2025-12-18T02:57Z
TLE epoch observation values (Epoch: 2025-12-18T02:57:40.654Z)
Latitude
27.59176°
Longitude
-86.4029°
Altitude
859.809 km
Speed
7.418 km/s
True Right ascension
02h 59m 59s
True Declination
27° 27' 10"
Sunlit
Object was in full shadow at epoch
Visualization orbit readout
Latitude
Unknown
Longitude
Unknown
Altitude
Unknown
Speed
Unknown
Apparent Right ascension
Unknown
Apparent Declination
Unknown
Sunlit
N/A
Visualization observer readout
Local Sidereal Time
16:18:50
Azimuth
Unknown
Elevation
Unknown
Doppler factor
Unknown
Orbital elements
Apogee altitude
929.571 km
Perigee altitude
751.686 km
Semi-major axis
7,218.766 km
Eccentricity
0.01232
Inclination
71.0844°
RAAN
235.2615°
Arg. of periapsis
50.8429°
True anomaly
99.89595°
Mean anomaly
98.5029°
Eccentric anomaly
99.19976°
Mean motion
3.53874 °/min
Orbital period
101.73 mins
BSTAR
0.0010333
Loading maneuver chart data...
Computing Atmospheric mass density...
Loading historical data...
Loading historical data...
Loading historical data...
Loading historical data...
Loading historical data...
Loading historical data...
Loading historical data...

Documentation

Showing up to 5 results
|